RH
77 81 86 87 86 86 85 85 85 83 81 80 78 76 70 61 55 56 55 54 56 56 57 58 61 65 68 74 74 65 60 58 56 58 60 58 57 59 57 55 54 51 52 53 54 54 53 52 51 49 48 48 49 48 47 46 45 44 44 44 45 47 50 49 49 47 44 44 43 42 45 46 45 46 48 51 53 50 47 47 47 47 48 50 50 48 44 41 41 43 43 42 43 44 44 46 48
80 83 86 86 85 86 86 85 86 85 81 80 76 71 65 58 56 56 55 55 55 54 55 58 60 64 69 73 71 65 64 62 56 55 57 56 57 57 56 54 51 49 50 50 50 49 49 49 48 46 44 45 46 45 45 43 41 40 39 39 41 44 46 45 44 43 42 41 41 44 46 47 45 46 47 51 54 52 49 48 48 48 49 50 51 50 47 44 43 45 45 45 43 42 44 46 47
79 82 83 85 84 84 87 87 87 86 82 80 75 74 70 60 57 57 55 55 53 52 54 58 61 63 66 69 69 65 61 61 56 54 59 58 57 56 55 52 49 49 48 48 47 46 46 45 45 44 44 45 45 43 41 41 41 39 39 41 43 44 45 44 43 43 46 46 44 48 48 47 46 46 48 53 57 55 52 52 51 49 49 50 51 51 50 49 47 48 49 48 44 42 45 46 46
79 82 83 84 85 83 87 89 87 86 83 81 78 79 75 60 55 57 55 51 51 53 57 59 62 61 61 63 63 60 54 58 59 57 62 59 55 54 52 50 49 49 47 46 45 45 45 42 42 42 43 43 42 42 42 41 41 39 40 42 45 47 44 44 48 47 50 53 50 49 50 48 48 49 51 55 58 57 56 54 52 50 50 50 51 52 51 51 51 51 51 50 46 43 44 45 46
81 82 82 84 87 86 86 88 86 85 84 82 81 81 72 56 53 57 55 51 51 53 57 61 62 58 56 56 55 55 52 57 62 59 62 59 52 52 50 49 48 49 46 43 43 43 43 40 39 40 40 39 38 40 41 42 40 40 40 41 44 46 44 46 52 53 50 53 57 54 53 53 52 53 54 57 59 57 56 54 51 50 50 51 50 52 53 53 54 52 51 51 47 44 44 46 46
79 81 82 84 86 87 88 90 88 85 83 80 79 74 62 55 57 59 55 52 53 56 59 58 55 51 49 49 50 52 53 55 60 61 59 57 54 55 54 51 48 46 43 39 38 38 38 36 35 35 35 36 37 39 41 40 39 41 43 44 46 46 49 51 53 57 54 51 57 58 58 58 56 56 57 59 60 56 55 55 53 51 52 52 50 53 53 56 57 53 52 52 48 44 44 46 46
76 79 82 85 85 87 90 91 89 85 82 79 74 62 55 58 60 59 56 54 58 58 55 53 49 46 48 46 46 51 54 54 57 58 57 56 57 57 54 52 49 42 36 33 33 34 33 33 33 34 36 38 39 42 43 43 42 44 48 50 53 53 52 53 52 56 57 53 55 59 62 62 59 60 60 61 62 59 57 57 56 55 55 51 50 53 53 54 55 52 52 52 51 46 45 46 43
76 78 81 87 88 87 89 91 89 85 83 79 69 57 56 60 60 58 57 58 59 57 52 52 48 45 51 47 46 51 51 52 53 54 56 58 57 54 54 53 46 35 30 32 33 35 35 35 39 41 43 44 45 46 47 49 48 50 55 56 57 56 53 53 54 56 58 59 60 63 66 66 64 64 64 63 63 62 60 59 58 55 54 51 51 53 52 52 52 51 51 50 51 48 46 43 39
77 80 81 85 87 88 88 90 89 85 83 77 67 59 57 59 60 59 59 61 59 57 53 52 48 44 51 50 49 52 48 50 50 51 53 54 54 51 53 50 39 30 31 35 37 38 38 42 47 48 49 51 52 51 53 54 54 57 59 60 60 57 55 56 56 58 59 63 65 66 67 68 68 68 67 65 64 64 63 62 58 55 56 54 52 51 51 52 52 51 48 47 48 48 44 38 35
73 79 81 81 83 86 87 89 89 88 84 77 70 61 57 59 61 60 61 62 59 57 52 48 47 43 49 51 52 52 49 49 48 56 59 51 51 52 52 47 35 33 36 37 39 41 42 46 49 50 52 55 55 55 56 57 57 59 59 60 61 57 57 58 59 62 63 64 65 64 65 67 68 68 68 68 67 68 68 66 61 60 59 57 53 50 51 52 52 50 46 44 45 44 38 33 31
70 76 80 81 82 86 87 87 89 89 85 79 73 64 58 58 60 61 61 62 60 57 52 47 45 44 48 51 51 50 48 52 53 63 68 54 51 53 51 45 39 40 41 41 42 45 47 48 49 50 53 55 56 56 56 56 56 57 58 59 59 58 58 60 62 64 65 65 65 64 64 65 66 67 68 68 68 68 70 69 65 64 62 58 53 50 51 52 52 49 44 42 42 38 33 29 29
72 78 81 84 84 86 86 86 88 86 86 82 75 70 63 61 61 62 64 65 60 55 52 46 44 44 47 50 49 47 51 60 59 60 64 56 52 54 51 47 48 50 48 48 48 49 49 48 49 51 54 57 57 57 56 56 56 57 59 59 59 60 61 63 64 65 66 67 67 65 64 66 66 67 68 67 68 69 70 70 66 64 63 58 51 50 52 52 52 47 42 40 39 35 30 27 26
75 82 84 86 84 86 87 86 85 82 86 86 78 73 69 66 65 64 66 66 61 57 54 45 42 43 43 49 49 45 51 61 57 55 57 53 52 53 52 52 54 55 53 53 52 51 49 48 49 53 57 59 59 58 59 59 59 60 61 62 62 61 62 64 63 65 67 67 67 65 64 67 67 67 67 67 68 69 70 70 67 64 63 58 53 53 54 53 49 44 41 40 39 36 31 26 25
75 79 81 84 83 84 88 85 84 81 83 84 78 75 73 71 69 66 64 68 66 59 54 45 42 41 40 49 54 51 52 57 54 53 54 51 52 52 53 56 56 57 58 57 55 53 51 50 53 57 59 59 59 59 60 61 60 60 60 61 60 60 59 60 61 63 65 64 65 66 67 69 69 68 67 66 67 68 70 69 67 65 61 58 56 56 55 51 46 44 43 41 39 37 33 29 28
72 77 81 85 86 84 85 82 84 84 79 78 78 77 76 72 69 66 63 68 66 57 54 48 43 39 38 43 51 54 51 54 55 53 52 50 50 51 54 59 59 60 62 60 58 55 53 54 55 57 57 56 56 58 59 61 60 60 60 60 59 59 57 57 60 62 64 64 66 69 70 70 71 70 68 68 67 68 69 68 66 64 62 61 60 59 56 51 46 45 42 40 37 36 34 32 32
71 76 84 85 85 85 85 82 84 86 79 77 78 78 80 76 69 66 65 65 62 57 53 49 43 38 37 40 44 49 52 57 57 52 52 53 51 51 56 61 62 61 61 61 59 57 57 56 55 55 54 52 54 57 59 60 60 60 60 60 59 58 57 59 62 64 66 66 67 70 71 71 71 70 69 69 67 67 67 65 64 65 65 63 61 59 56 52 48 44 40 36 34 33 34 34 34
73 77 85 84 85 85 83 81 82 83 80 78 77 79 83 78 71 68 66 65 61 57 54 51 48 38 36 41 41 45 51 56 53 49 51 53 51 52 57 60 62 63 61 59 59 59 57 55 54 53 51 50 53 55 58 59 59 59 60 60 60 59 60 61 62 64 66 67 68 69 70 70 69 68 68 68 66 65 64 63 64 65 64 61 58 56 54 51 47 43 38 34 33 33 34 35 36
77 82 85 83 84 82 80 79 78 79 79 77 77 79 82 77 74 70 68 67 62 57 56 55 50 43 41 40 40 43 47 50 49 49 50 51 51 51 54 57 61 63 61 58 59 60 56 55 55 53 52 53 55 56 57 59 57 57 58 59 59 59 60 60 60 63 65 67 68 67 67 67 67 67 67 66 64 63 63 63 63 63 60 57 54 53 51 48 45 40 36 33 33 34 36 37 38
75 81 83 81 79 75 76 77 76 78 79 78 76 77 79 79 76 71 68 65 60 60 60 54 51 49 47 41 39 43 45 46 47 49 49 49 49 49 51 54 58 59 58 56 58 60 57 54 55 57 59 56 56 58 58 57 56 56 57 58 59 58 58 60 61 62 64 66 66 65 64 64 65 66 65 63 62 62 62 62 60 58 56 54 52 50 49 47 43 40 37 35 34 36 38 40 39
71 75 78 77 76 72 75 77 74 77 79 81 80 77 79 82 78 70 65 61 58 60 56 50 50 49 46 42 40 42 44 45 47 48 47 47 48 48 49 52 56 58 57 56 58 61 57 53 55 60 61 55 56 59 57 57 57 58 59 58 58 58 58 59 60 60 61 62 62 62 61 62 63 64 64 62 61 61 60 59 56 54 53 53 50 49 48 46 43 41 41 40 40 42 41 41 41
70 72 75 75 73 72 76 77 77 80 82 85 83 80 81 81 78 69 61 59 58 56 51 46 44 41 41 41 40 42 44 45 47 48 46 46 47 47 47 48 53 57 56 56 59 58 55 54 56 60 58 54 57 58 56 57 57 57 57 57 57 57 58 58 59 59 59 59 59 59 59 60 61 61 61 60 59 59 57 56 54 52 52 51 49 47 46 43 42 43 45 47 47 44 42 41 41
69 71 72 72 70 72 77 77 80 85 85 87 85 82 80 78 75 68 59 57 56 54 52 45 38 36 37 38 42 45 45 46 47 48 47 45 45 46 44 47 52 55 55 56 59 58 54 54 58 60 58 57 59 57 55 54 52 50 51 54 57 58 58 58 58 58 58 58 57 57 59 60 60 58 57 56 57 57 55 54 53 52 51 50 48 47 45 43 45 48 50 51 47 43 40 39 38
71 71 70 69 68 73 77 77 84 87 86 88 86 80 78 76 73 68 59 54 54 55 52 45 38 35 35 38 43 46 46 47 47 48 48 45 45 44 43 46 50 52 55 56 57 57 55 54 58 58 59 61 61 57 54 51 47 46 47 52 55 57 58 58 57 56 56 57 56 57 57 57 56 55 54 54 55 55 54 53 52 52 51 50 48 47 46 48 51 51 51 49 44 41 38 35 35
71 73 70 69 69 74 75 76 86 89 88 88 84 80 77 75 73 70 61 54 55 56 53 46 37 33 34 39 42 44 46 47 46 48 49 48 45 42 41 44 48 50 54 58 57 57 57 57 58 56 60 63 61 58 55 50 47 44 46 50 52 54 56 57 56 54 54 55 55 54 53 53 53 53 54 54 54 53 53 52 50 50 50 50 49 49 50 52 54 51 48 45 40 38 35 33 33
70 71 68 67 70 74 73 77 85 86 86 86 80 80 79 76 72 69 63 59 58 56 53 45 35 31 33 37 42 45 47 48 46 47 49 49 45 41 40 42 46 49 53 58 58 57 58 58 57 57 60 62 60 58 55 51 48 44 44 48 50 51 53 55 54 52 51 53 52 52 52 51 51 52 53 54 53 52 51 50 49 49 49 50 50 51 52 53 53 50 46 42 38 35 32 30 31
66 69 68 68 72 75 74 78 83 80 81 80 78 80 80 74 67 66 63 61 59 57 55 44 33 32 34 38 43 45 47 48 46 46 49 52 48 41 39 42 44 46 50 56 57 55 55 55 57 59 60 61 60 56 52 51 48 44 43 45 48 48 49 51 50 49 50 51 52 53 53 52 51 52 52 52 51 50 48 47 48 48 49 51 53 53 51 51 51 49 44 40 37 34 31 30 31
63 67 70 70 74 77 76 80 82 76 73 73 74 78 76 67 61 61 60 59 58 56 56 46 34 33 37 41 45 45 45 45 47 49 52 55 50 41 39 41 43 46 49 52 54 54 55 54 57 60 59 61 58 53 51 49 47 46 43 41 43 44 46 46 46 47 49 51 52 53 53 51 50 49 49 49 48 48 46 45 45 47 49 52 54 53 51 50 49 48 43 37 35 33 30 31 32
65 65 70 71 75 78 77 80 81 76 72 71 70 73 74 66 62 60 56 54 56 55 53 46 37 37 43 45 45 46 44 45 50 52 52 55 49 41 40 41 42 46 47 49 52 55 55 54 57 57 58 59 57 52 50 48 47 46 42 39 40 41 43 43 44 45 46 49 50 51 51 49 47 45 42 43 45 47 46 45 45 47 49 49 50 50 51 52 49 44 39 34 32 31 31 32 33
67 67 69 74 79 81 77 77 78 76 76 76 72 72 74 71 64 59 56 54 53 53 50 47 41 41 48 47 46 49 48 47 53 54 52 51 45 40 41 41 43 47 46 46 51 55 53 53 55 54 56 58 55 51 49 48 46 45 42 40 40 41 42 42 44 44 45 47 48 49 50 48 46 41 39 41 44 46 46 44 44 45 46 47 50 51 51 51 46 41 37 34 32 29 31 33 34
67 68 66 72 83 84 78 76 75 75 77 78 76 75 76 75 65 56 58 55 52 52 49 50 44 42 48 47 47 51 51 49 52 55 51 46 43 41 42 42 46 48 44 45 51 55 51 50 53 54 56 56 51 49 48 47 45 44 43 41 42 41 41 42 43 44 45 47 48 48 47 45 43 40 40 43 44 43 43 42 41 41 42 42 46 48 47 46 42 37 36 34 31 29 31 34 34
62 67 66 68 79 84 79 77 75 74 77 77 77 79 78 77 67 57 57 53 53 52 47 50 45 41 46 46 46 49 51 51 52 55 50 46 47 46 44 44 48 48 44 45 49 52 52 49 51 53 54 53 50 49 48 48 44 41 41 42 43 42 40 40 40 43 45 46 45 44 42 39 39 40 42 43 41 40 40 40 39 38 39 39 41 44 44 42 39 37 36 34 30 30 33 34 36
58 63 68 66 70 78 79 77 76 73 74 75 77 83 82 79 70 61 57 51 55 55 45 48 46 43 45 42 44 47 50 51 51 53 48 46 51 50 45 44 49 48 45 48 47 48 51 48 48 50 51 51 51 49 48 49 45 42 42 43 42 41 40 39 38 40 42 43 41 39 37 36 38 41 41 38 38 39 39 40 40 40 40 39 41 42 42 41 39 39 38 35 31 32 34 37 40
55 55 62 65 64 73 80 78 77 75 74 75 79 83 83 80 73 64 59 53 55 55 46 45 46 47 45 40 44 46 46 50 50 50 45 45 50 50 47 45 48 47 48 52 47 46 50 48 45 45 45 48 49 48 47 48 47 45 44 42 42 40 38 36 36 36 37 37 35 34 33 35 39 40 38 36 37 39 40 41 41 40 39 40 41 41 42 41 40 40 38 35 33 33 36 38 40
53 51 53 59 62 69 77 79 79 77 76 77 79 81 81 81 75 66 63 58 55 54 49 45 45 50 47 40 45 44 41 48 51 48 44 46 49 50 51 48 46 46 49 52 49 47 48 47 45 43 42 44 47 47 46 46 46 47 44 40 39 37 35 35 34 33 33 32 31 30 31 33 37 38 36 36 38 40 42 43 43 41 38 38 39 39 41 41 40 39 36 35 35 36 37 37 37
54 54 53 60 64 67 72 76 77 76 77 78 79 81 82 83 78 68 66 64 59 54 52 49 47 52 49 42 46 43 39 46 49 45 42 45 47 48 53 49 45 48 49 49 50 49 48 47 47 45 43 43 46 47 46 46 46 48 45 40 38 36 34 33 33 32 30 29 29 28 31 32 34 37 38 38 41 43 44 44 42 41 39 38 39 38 41 44 42 40 38 37 37 37 37 36 35
55 54 56 62 63 64 67 71 74 74 76 78 78 81 82 84 81 72 69 68 65 57 53 56 54 52 50 45 47 44 40 44 45 41 40 44 46 45 49 48 46 50 49 48 50 49 49 49 48 47 44 43 47 47 46 47 47 48 46 42 38 35 32 31 32 33 30 28 28 28 31 33 34 38 40 41 43 44 45 43 42 42 41 40 40 38 40 44 43 42 40 38 38 37 36 36 36
50 50 55 62 60 61 62 67 72 72 75 77 76 78 79 83 82 74 71 71 70 63 56 57 57 55 52 48 49 44 40 42 42 39 40 45 44 41 45 45 45 47 47 49 51 50 49 49 47 46 43 42 44 45 46 47 47 47 46 43 38 35 34 32 32 33 29 27 28 28 31 33 34 37 39 43 44 44 44 42 41 41 41 41 41 39 40 41 41 42 41 40 39 37 36 36 36
46 51 53 58 57 56 58 64 72 73 77 81 79 79 78 81 84 79 75 76 75 70 63 58 56 57 54 50 51 45 39 42 42 39 41 45 43 40 42 42 40 42 45 49 53 51 49 50 48 44 42 41 41 42 45 47 47 46 47 44 39 37 37 35 35 32 27 26 28 27 28 30 33 36 39 43 43 43 44 43 41 42 42 42 41 41 41 40 40 41 41 40 39 37 37 36 34
45 50 49 54 55 57 64 68 70 72 78 82 81 82 82 81 84 86 84 81 77 74 70 64 60 59 54 51 52 47 41 44 44 40 43 46 43 40 41 39 36 38 43 48 51 53 51 51 50 44 40 40 40 41 44 49 48 47 48 46 42 40 39 38 37 34 28 26 26 26 26 27 30 33 37 41 42 42 44 44 43 43 42 41 41 40 40 40 39 40 40 39 37 36 36 35 32
43 47 47 55 57 59 70 74 72 71 74 78 79 82 85 84 84 88 88 83 78 76 75 70 65 62 57 53 53 48 43 44 45 43 45 48 45 41 39 37 35 34 40 45 49 53 54 52 50 45 40 37 39 42 45 49 50 50 51 49 46 43 42 42 40 36 31 27 26 26 26 26 29 32 35 39 40 40 40 41 42 41 39 38 39 39 38 38 39 40 40 38 38 36 34 33 31
42 45 47 55 56 54 63 69 71 73 73 74 78 84 88 86 87 89 87 85 82 80 79 76 70 64 61 57 54 49 45 46 48 47 48 50 47 42 39 37 34 32 36 41 45 50 54 54 50 46 41 37 38 43 46 49 51 52 52 50 47 46 46 45 42 39 35 29 27 27 27 26 28 31 33 36 39 40 40 38 39 39 37 36 37 37 38 37 37 39 40 38 39 37 34 32 32
41 44 45 50 52 53 59 62 64 74 78 75 75 84 89 87 88 90 88 86 84 84 86 82 75 68 63 62 57 51 48 49 52 52 51 50 47 43 40 38 35 33 34 37 42 46 51 52 49 46 43 39 40 44 46 48 49 50 51 49 48 47 48 47 44 41 36 31 28 29 29 28 28 30 32 35 37 40 41 40 38 38 37 37 37 38 39 38 37 37 38 39 39 37 33 32 33
41 41 43 49 52 53 59 59 58 66 74 70 67 76 87 87 87 88 87 87 86 86 88 85 80 72 66 63 61 56 51 50 54 56 54 52 48 45 42 39 36 35 35 36 40 43 47 50 49 46 45 43 42 43 44 45 46 47 48 49 47 46 48 48 46 43 37 33 30 30 30 30 29 30 33 35 37 40 41 40 39 38 38 39 39 39 40 41 40 37 36 37 38 38 33 33 36
43 40 42 49 52 52 54 54 54 56 62 66 64 67 79 86 85 85 85 88 89 86 86 87 84 78 71 65 62 60 54 52 54 56 57 56 52 48 46 40 36 36 36 36 39 41 44 48 49 47 46 46 44 40 39 41 43 45 46 46 46 45 46 48 49 46 40 37 34 33 31 30 31 32 33 34 35 38 39 39 39 39 39 40 40 43 45 45 44 41 38 36 39 40 37 36 37
41 42 42 44 47 49 50 50 52 54 61 72 70 65 75 82 81 83 85 86 88 86 83 85 85 82 78 69 64 62 58 56 56 56 59 59 55 52 50 43 37 37 37 38 39 41 42 44 46 47 46 45 43 38 36 37 38 42 44 44 45 46 45 48 50 47 45 43 39 35 32 29 32 37 36 32 32 35 36 38 40 40 41 41 41 45 47 45 45 44 39 37 38 39 39 37 35
40 44 42 40 42 44 45 48 52 55 61 72 71 65 73 83 82 81 86 86 84 82 82 84 84 82 80 74 67 64 61 58 56 55 58 61 57 53 51 47 40 38 38 39 40 41 43 42 42 45 47 44 40 36 35 34 34 38 41 43 45 45 44 46 49 48 48 49 44 38 33 30 33 39 37 32 32 33 34 38 40 40 41 42 43 45 46 46 46 43 38 38 37 35 38 37 36
43 44 42 42 42 40 41 42 45 49 51 55 61 61 64 79 85 78 77 79 76 77 81 84 84 82 80 77 71 65 61 60 58 57 58 61 59 53 50 49 43 39 39 41 41 41 43 43 39 40 45 43 39 37 35 33 31 33 36 40 43 44 44 44 48 49 49 51 49 42 37 34 35 38 37 33 32 33 33 36 40 40 40 42 44 44 47 46 42 39 37 38 37 34 36 35 36
44 43 42 44 43 41 42 41 41 46 45 42 50 57 55 67 80 74 68 68 68 71 75 79 82 81 79 78 75 67 62 61 61 59 59 61 62 56 51 50 47 42 40 41 42 43 43 44 41 36 39 41 40 40 37 32 31 31 31 36 39 43 47 47 46 49 50 49 49 46 41 38 37 39 38 33 31 31 34 36 38 40 40 41 43 44 48 47 41 40 39 39 38 35 35 34 35
42 44 43 45 45 43 44 44 43 42 39 36 41 53 59 62 68 67 66 66 65 67 68 71 76 79 78 78 75 69 63 62 62 60 60 60 61 58 53 52 51 46 42 42 44 46 45 45 44 38 35 37 39 41 39 33 31 30 29 32 36 41 47 47 44 46 48 46 44 43 42 39 39 40 39 36 34 31 33 36 36 39 41 41 42 44 48 47 45 45 43 41 40 37 36 36 36
35 42 43 45 47 48 47 45 41 36 34 33 34 45 58 63 62 63 65 65 64 65 65 67 71 75 77 76 73 71 67 65 62 60 60 59 58 57 55 54 53 50 47 46 44 46 48 48 47 43 37 36 36 38 39 34 31 30 29 31 35 38 42 44 43 44 44 43 41 40 41 39 38 40 39 40 41 38 36 36 35 37 41 42 42 42 43 45 47 49 47 46 44 39 37 36 35
30 35 40 43 44 46 46 43 39 36 34 32 34 42 52 59 60 61 63 63 64 65 65 66 69 72 75 74 73 71 70 69 65 61 58 57 56 55 54 55 55 52 51 50 45 44 46 48 49 45 39 39 36 34 36 35 32 30 28 30 33 35 37 40 42 43 43 42 39 39 41 40 38 40 41 43 48 46 42 41 37 37 41 43 41 38 38 39 41 44 47 47 46 43 40 37 36
30 32 36 39 40 42 42 40 37 36 35 34 42 52 54 55 56 55 58 62 63 65 66 67 68 69 70 71 72 71 71 71 68 63 59 57 56 54 53 56 55 52 50 49 45 44 46 47 48 45 40 41 39 34 33 34 33 31 27 29 33 35 36 36 38 39 41 42 39 37 42 44 42 42 42 43 47 47 45 45 43 41 41 41 39 35 34 36 37 38 40 41 41 42 42 39 38
32 33 33 32 34 38 39 39 35 33 35 39 50 62 61 58 58 55 55 60 62 63 66 68 69 69 69 67 68 69 70 72 70 65 62 59 57 54 53 54 54 51 48 46 44 44 45 47 49 46 41 41 40 36 34 33 33 32 28 28 31 35 35 33 34 38 42 43 42 41 43 47 49 49 48 47 47 47 45 45 45 43 42 41 39 36 34 36 37 37 37 37 38 38 40 41 40
32 31 31 28 30 33 36 38 35 34 37 37 47 62 63 63 63 58 56 57 58 60 63 66 68 69 69 68 67 68 69 72 70 67 66 64 61 59 57 56 54 50 47 45 43 43 44 45 46 45 41 39 39 38 36 34 33 32 30 28 29 33 34 33 36 39 41 43 46 46 47 49 51 52 52 52 51 50 47 45 44 43 43 43 41 38 37 37 38 39 38 38 38 37 37 42 44
31 29 28 28 30 32 31 33 35 36 36 38 52 62 60 62 62 58 57 56 54 56 58 61 64 66 68 68 69 70 69 70 69 68 69 68 67 67 65 63 60 55 51 47 44 44 44 45 44 43 41 39 38 37 36 35 33 31 30 29 28 31 33 35 39 39 40 44 48 49 47 49 51 50 51 53 53 52 51 48 45 42 42 43 42 41 41 40 38 39 40 39 41 41 41 42 44
30 28 26 26 28 28 26 27 31 34 34 40 62 73 67 68 67 59 58 57 54 56 57 58 60 62 65 67 68 70 70 69 69 69 71 70 70 71 68 67 66 62 58 53 47 45 45 45 44 44 43 40 39 37 36 35 35 33 31 29 28 30 32 36 40 42 42 45 49 51 49 48 49 50 52 53 53 54 54 52 48 45 42 42 43 43 43 42 40 41 41 41 43 45 45 44 42
28 27 26 23 23 22 20 20 23 29 32 34 54 74 74 74 73 64 61 62 60 61 62 61 61 61 63 63 64 67 68 69 69 70 73 72 71 72 71 69 69 68 67 59 51 47 45 45 46 45 44 42 41 39 37 35 35 35 33 29 28 29 30 33 39 43 44 44 48 53 53 49 48 50 51 52 53 54 53 52 51 49 46 45 47 49 47 45 44 44 43 43 45 47 47 48 48
29 27 27 22 22 24 23 23 21 21 26 26 39 66 75 72 72 68 64 65 66 67 67 66 64 63 63 62 63 66 68 68 69 71 75 75 74 75 76 75 72 72 72 65 57 52 48 48 50 48 47 46 44 43 39 36 36 38 37 33 30 29 29 32 37 42 43 43 46 51 54 53 52 52 53 54 56 56 54 53 51 50 49 48 51 54 54 50 49 50 47 45 47 48 48 49 49